sat.trackr.live / text

‹ back to catalog

STARLINK-5632

NORAD 55400 · 2023-014K

PAYLOAD ACTIVE UNKNOWN

§ Identity

Operator
Country
US
Launch date
2023-01-31
Launch site
AFWTR
Launch vehicle
Mass (kg)
RCS (m²)

Purposes: comms

External: N2YO · Heavens-Above · Gunter

§ Orbital elements

Epoch: 2026-09-20T11:39:15.330240Z

Period
96.11 min
Inclination
69.9967°
Eccentricity
0.0003867
Mean motion
14.98338170 rev/d
Perigee alt
569.3 km
Apogee alt
574.7 km
Semi-major
6,950.2 km
B*
-7.5504e-5
RAAN
293.3116°
Arg perigee
267.0691°
Mean anomaly
93.0025°
Rev number
20,123

§ Raw data

STARLINK-56321 55400U 23014K   26263.48559410 -.00000994  00000+0 -75504-4 0  99972 55400  69.9967 293.3116 0003867 267.0691  93.0025 14.98338170201233

JSON: /api/v1/satellites/55400 · /tle

For live sub-satellite position, see the globe view (requires WebGL).

§ Visibility from observer

Set your observer location to see the next 7 days of passes ≥ 10°. The values pass through the URL so the page stays shareable.

No JS? Fill the form by hand. The geolocation button needs JavaScript.